CALSPHERE 1 1 00900U 64063C 26262.96430196 .00000431 00000+0 42829-3 0 9999 2 00900 90.2179 73.9639 0026122 9.9186 143.7919 13.76708153 84469 CALSPHERE 2 1 00902U 64063E 26262.94055013 .00000031 00000+0 34017-4 0 9997 2 00902 90.2290 78.0218 0017221 316.8762 200.2477 13.52906453869077 LCS 1 1 01361U 65034C 26262.78792950 .00000018 00000+0 12431-2 0 9995 2 01361 32.1442 312.4170 0011115 98.0829 262.0930 9.89310782219250 TEMPSAT 1 1 01512U 65065E 26262.32049789 .00000053 00000+0 88173-4 0 9999 2 01512 90.0069 212.6147 0069375 345.9665 180.0367 13.33598703972595 CALSPHERE 4A 1 01520U 65065H 26262.86052440 .00000068 00000+0 11236-3 0 9996 2 01520 89.8894 121.5303 0068986 195.0947 177.4126 13.36291632975356 OPS 5712 (P/L 160) 1 02826U 67053A 26262.98318061 .00004146 00000+0 57372-3 0 9994 2 02826 69.9161 165.7430 0003859 269.0200 91.0507 14.78767600 80244 OPS 5712 (P/L 153) 1 02874U 67053H 26262.71876568 -.00000004 00000+0 35450-4 0 9993 2 02874 69.9718 272.6824 0004690 61.6647 298.4932 13.96839550 19997 RIGIDSPHERE 2 (LCS 4) 1 05398U 71067E 26262.90321357 .00000336 00000+0 10333-3 0 9998 2 05398 87.6205 312.5201 0057432 278.7971 80.6727 14.37959442887495 COSMOS 2493 (SKRL-756 1) 1 39490U 13078A 26262.92818984 .00001539 00000+0 11355-3 0 9996 2 39490 82.4152 168.4814 0011219 287.0106 72.9890 15.02572906692187 COSMOS 2494 (SKRL-756 2) 1 39491U 13078B 26262.88683723 .00001450 00000+0 99181-4 0 9999 2 39491 82.4140 157.5135 0014345 239.8205 120.1601 15.05341378693051